JDI69 LPPT-GMMN

Flight info

Callsign JDI69
Flight time 1h 5m
Altitude 35000
Route DUZOP DCT AMSEL UR722 LAKAM
Aircraft MD11/H-SDE1E2E3FGHIJ2J3J4J5M1RWXY/LB1D1

Departure

Time 2026-05-07 18:52
Airport Lisbon Humberto Delgado Airport (LPPT)

Arrival

Time 2026-05-07 19:57
Airport Mohammed V International Airport (GMMN)
Time Latitude Longitude Altitude Speed Heading
2026-05-07 17:59 38.76828 -9.13572 361 ft 0 kts 258°
2026-05-07 18:37 38.76830 -9.13562 362 ft 2 kts 258°
2026-05-07 18:38 38.76833 -9.13543 361 ft 2 kts 258°
2026-05-07 18:38 38.76836 -9.13524 362 ft 2 kts 257°
2026-05-07 18:38 38.76839 -9.13505 362 ft 2 kts 246°
2026-05-07 18:38 38.76846 -9.13488 362 ft 2 kts 214°
2026-05-07 18:39 38.76859 -9.13480 362 ft 1 kts 170°
2026-05-07 18:39 38.76860 -9.13480 359 ft 0 kts 170°
2026-05-07 18:43 38.76851 -9.13478 362 ft 4 kts 168°
2026-05-07 18:43 38.76805 -9.13465 355 ft 8 kts 168°
2026-05-07 18:44 38.76758 -9.13453 357 ft 5 kts 169°
2026-05-07 18:44 38.76718 -9.13444 358 ft 8 kts 169°
2026-05-07 18:44 38.76676 -9.13451 355 ft 4 kts 209°
2026-05-07 18:44 38.76659 -9.13479 359 ft 5 kts 240°
2026-05-07 18:45 38.76645 -9.13542 359 ft 10 kts 258°
2026-05-07 18:45 38.76628 -9.13640 359 ft 11 kts 258°
2026-05-07 18:45 38.76613 -9.13731 358 ft 10 kts 258°
2026-05-07 18:45 38.76600 -9.13810 361 ft 9 kts 258°
2026-05-07 18:46 38.76588 -9.13879 353 ft 7 kts 258°
2026-05-07 18:46 38.76579 -9.13937 354 ft 6 kts 258°
2026-05-07 18:46 38.76564 -9.13996 360 ft 6 kts 241°
2026-05-07 18:46 38.76543 -9.14030 361 ft 4 kts 232°
2026-05-07 18:47 38.76517 -9.14073 359 ft 7 kts 233°
2026-05-07 18:47 38.76498 -9.14132 362 ft 7 kts 259°
2026-05-07 18:47 38.76505 -9.14205 356 ft 10 kts 289°
2026-05-07 18:47 38.76527 -9.14274 351 ft 0 kts 292°
2026-05-07 18:50 38.76528 -9.14277 352 ft 2 kts 292°
2026-05-07 18:50 38.76546 -9.14331 353 ft 10 kts 292°
2026-05-07 18:50 38.76575 -9.14390 352 ft 5 kts 325°
2026-05-07 18:51 38.76617 -9.14398 350 ft 7 kts
2026-05-07 18:51 38.76665 -9.14377 349 ft 7 kts 20°
2026-05-07 18:51 38.76761 -9.14327 355 ft 39 kts 22°
2026-05-07 18:51 38.77298 -9.14042 368 ft 125 kts 22°
2026-05-07 18:52 38.78308 -9.13475 474 ft 179 kts 20°
2026-05-07 18:52 38.79406 -9.12772 1448 ft 179 kts 24°
2026-05-07 18:52 38.80509 -9.11986 2454 ft 182 kts 24°
2026-05-07 18:52 38.81638 -9.11183 3382 ft 190 kts 26°
2026-05-07 18:53 38.82848 -9.10307 4023 ft 214 kts 26°
2026-05-07 18:53 38.84217 -9.09316 4475 ft 238 kts 26°
2026-05-07 18:53 38.85724 -9.08212 4610 ft 265 kts 31°
2026-05-07 18:53 38.87149 -9.06595 5011 ft 280 kts 53°
2026-05-07 18:54 38.87946 -9.04356 5931 ft 276 kts 83°
2026-05-07 18:54 38.87868 -9.01949 7004 ft 269 kts 110°
2026-05-07 18:54 38.87110 -8.99762 7952 ft 268 kts 126°
2026-05-07 18:54 38.85887 -8.97981 8938 ft 267 kts 145°
2026-05-07 18:55 38.84834 -8.97178 9584 ft 267 kts 159°
2026-05-07 18:55 38.83015 -8.96692 10330 ft 277 kts 180°
2026-05-07 18:55 38.81019 -8.97156 10471 ft 308 kts 198°
2026-05-07 18:55 38.78932 -8.98220 10638 ft 338 kts 202°
2026-05-07 18:56 38.76758 -8.99465 11439 ft 343 kts 202°
2026-05-07 18:56 38.74441 -9.00196 12340 ft 346 kts 183°
2026-05-07 18:56 38.72044 -8.99868 13170 ft 352 kts 168°
2026-05-07 18:56 38.69651 -8.99085 13967 ft 357 kts 166°
2026-05-07 18:57 38.67241 -8.98249 14731 ft 361 kts 166°
2026-05-07 18:57 38.64797 -8.97399 15492 ft 366 kts 167°
2026-05-07 18:57 38.62340 -8.96552 16204 ft 370 kts 167°
2026-05-07 18:57 38.59839 -8.95700 16912 ft 374 kts 167°
2026-05-07 18:58 38.57302 -8.94842 17618 ft 379 kts 167°
2026-05-07 18:58 38.54775 -8.93992 18256 ft 383 kts 168°
2026-05-07 18:58 38.52147 -8.93111 18817 ft 387 kts 169°
2026-05-07 18:58 38.49557 -8.92245 19387 ft 391 kts 169°
2026-05-07 18:59 38.46919 -8.91364 19941 ft 394 kts 169°
2026-05-07 18:59 38.44253 -8.90475 20482 ft 398 kts 169°
2026-05-07 18:59 38.41558 -8.89576 21049 ft 401 kts 169°
2026-05-07 18:59 38.38847 -8.88673 21622 ft 405 kts 169°
2026-05-07 19:00 38.36112 -8.87762 22197 ft 408 kts 169°
2026-05-07 19:00 38.33358 -8.86847 22775 ft 412 kts 169°
2026-05-07 19:00 38.30573 -8.85921 23373 ft 415 kts 169°
2026-05-07 19:00 38.27763 -8.84987 23907 ft 418 kts 169°
2026-05-07 19:01 38.24932 -8.84048 24412 ft 422 kts 169°
2026-05-07 19:01 38.22126 -8.83117 24935 ft 425 kts 169°
2026-05-07 19:01 38.19251 -8.82164 25466 ft 429 kts 169°
2026-05-07 19:01 38.16347 -8.81203 25989 ft 432 kts 169°
2026-05-07 19:02 38.13430 -8.80238 26511 ft 436 kts 169°
2026-05-07 19:02 38.10482 -8.79260 27022 ft 440 kts 169°
2026-05-07 19:02 38.07539 -8.78113 27524 ft 445 kts 166°
2026-05-07 19:02 38.04603 -8.76798 28020 ft 450 kts 165°
2026-05-07 19:03 38.01657 -8.75431 28518 ft 454 kts 165°
2026-05-07 19:03 37.98676 -8.74055 29006 ft 457 kts 165°
2026-05-07 19:03 37.95669 -8.72691 29497 ft 460 kts 165°
2026-05-07 19:03 37.92637 -8.71338 29920 ft 464 kts 166°
2026-05-07 19:04 37.89568 -8.69986 30245 ft 469 kts 166°
2026-05-07 19:04 37.86520 -8.68650 30628 ft 471 kts 166°
2026-05-07 19:04 37.83437 -8.67303 31070 ft 470 kts 167°
2026-05-07 19:04 37.80343 -8.65952 31568 ft 469 kts 167°
2026-05-07 19:05 37.77261 -8.64607 31937 ft 467 kts 167°
2026-05-07 19:05 37.74190 -8.63268 32380 ft 465 kts 167°
2026-05-07 19:05 37.71185 -8.61742 32821 ft 470 kts 160°
2026-05-07 19:05 37.68308 -8.59744 33269 ft 474 kts 156°
2026-05-07 19:06 37.65515 -8.57522 33687 ft 475 kts 154°
2026-05-07 19:06 37.60041 -8.52860 34424 ft 474 kts 153°
2026-05-07 19:06 37.57367 -8.50529 34779 ft 473 kts 153°
2026-05-07 19:07 37.54626 -8.48126 34898 ft 473 kts 153°
2026-05-07 19:07 37.51965 -8.45787 34933 ft 474 kts 153°
2026-05-07 19:07 37.46568 -8.41036 34936 ft 473 kts 153°
2026-05-07 19:08 37.41165 -8.36283 34923 ft 473 kts 153°
2026-05-07 19:08 37.35583 -8.32073 34928 ft 461 kts 166°
2026-05-07 19:09 37.29520 -8.30351 34928 ft 445 kts 182°
2026-05-07 19:09 37.23353 -8.29487 34927 ft 449 kts 178°
2026-05-07 19:10 37.17200 -8.27920 34921 ft 453 kts 174°
2026-05-07 19:10 37.11081 -8.25936 34927 ft 455 kts 172°
2026-05-07 19:11 37.05010 -8.23873 34918 ft 454 kts 172°
2026-05-07 19:11 36.98913 -8.21814 34914 ft 454 kts 173°
2026-05-07 19:12 36.92824 -8.19775 34919 ft 454 kts 172°
2026-05-07 19:12 36.86736 -8.17744 34919 ft 454 kts 172°
2026-05-07 19:13 36.80635 -8.15712 34923 ft 454 kts 172°
2026-05-07 19:13 36.74532 -8.13683 34929 ft 454 kts 172°
2026-05-07 19:14 36.68459 -8.11667 34930 ft 455 kts 172°
2026-05-07 19:14 36.62343 -8.09640 34941 ft 455 kts 172°
2026-05-07 19:15 36.56223 -8.07622 34938 ft 455 kts 172°
2026-05-07 19:15 36.50096 -8.05605 34938 ft 455 kts 172°
2026-05-07 19:16 36.43981 -8.03591 34937 ft 455 kts 172°
2026-05-07 19:16 36.37889 -8.01585 34940 ft 455 kts 172°
2026-05-07 19:17 36.31767 -7.99573 34942 ft 455 kts 172°
2026-05-07 19:17 36.25639 -7.97562 34944 ft 455 kts 172°
2026-05-07 19:18 36.19521 -7.95556 34940 ft 455 kts 172°
2026-05-07 19:18 36.13402 -7.93554 34947 ft 455 kts 172°
2026-05-07 19:19 36.07287 -7.91557 34950 ft 455 kts 172°
2026-05-07 19:19 36.01165 -7.89561 34949 ft 455 kts 172°
2026-05-07 19:20 35.95019 -7.88064 34943 ft 447 kts 181°
2026-05-07 19:20 35.88885 -7.87484 34947 ft 444 kts 183°
2026-05-07 19:21 35.82722 -7.87021 34949 ft 444 kts 183°
2026-05-07 19:21 35.76549 -7.86500 34949 ft 444 kts 182°
2026-05-07 19:22 35.70383 -7.85945 34949 ft 444 kts 182°
2026-05-07 19:22 35.64254 -7.85386 34952 ft 444 kts 182°
2026-05-07 19:23 35.58088 -7.84825 34949 ft 444 kts 182°
2026-05-07 19:23 35.51917 -7.84266 34949 ft 444 kts 182°
2026-05-07 19:24 35.45752 -7.83708 34943 ft 445 kts 182°
2026-05-07 19:24 35.39586 -7.83161 34948 ft 444 kts 183°
2026-05-07 19:25 35.33460 -7.82642 34955 ft 444 kts 183°
2026-05-07 19:25 35.27307 -7.82125 34955 ft 443 kts 183°
2026-05-07 19:26 35.21148 -7.81607 34948 ft 443 kts 183°
2026-05-07 19:26 35.14999 -7.81089 34956 ft 443 kts 183°
2026-05-07 19:27 35.08863 -7.80573 34954 ft 443 kts 183°
2026-05-07 19:27 35.02769 -7.80061 34955 ft 442 kts 183°
2026-05-07 19:28 34.99702 -7.79803 34728 ft 441 kts 182°
2026-05-07 19:28 34.96633 -7.79546 34344 ft 442 kts 182°
2026-05-07 19:28 34.93555 -7.79290 33804 ft 444 kts 182°
2026-05-07 19:28 34.90482 -7.79033 33166 ft 444 kts 182°
2026-05-07 19:29 34.87393 -7.78776 32576 ft 447 kts 182°
2026-05-07 19:29 34.84278 -7.78517 31986 ft 449 kts 182°
2026-05-07 19:29 34.81195 -7.78260 31411 ft 452 kts 182°
2026-05-07 19:29 34.78050 -7.77998 30822 ft 454 kts 182°
2026-05-07 19:30 34.74891 -7.77738 30255 ft 456 kts 182°
2026-05-07 19:30 34.71718 -7.77497 29529 ft 457 kts 182°
2026-05-07 19:30 34.68551 -7.77270 28826 ft 453 kts 182°
2026-05-07 19:30 34.65427 -7.77049 28136 ft 447 kts 182°
2026-05-07 19:31 34.62341 -7.76834 27483 ft 442 kts 182°
2026-05-07 19:31 34.59282 -7.76621 26828 ft 437 kts 182°
2026-05-07 19:31 34.56267 -7.76411 26182 ft 432 kts 182°
2026-05-07 19:31 34.53275 -7.76203 25557 ft 428 kts 182°
2026-05-07 19:32 34.50322 -7.75998 24929 ft 423 kts 182°
2026-05-07 19:32 34.47434 -7.75797 24312 ft 419 kts 182°
2026-05-07 19:32 34.44537 -7.75596 23712 ft 415 kts 182°
2026-05-07 19:32 34.41673 -7.75397 23025 ft 410 kts 182°
2026-05-07 19:33 34.38841 -7.75201 22368 ft 406 kts 182°
2026-05-07 19:33 34.36030 -7.75006 21759 ft 403 kts 182°
2026-05-07 19:33 34.33241 -7.74814 21159 ft 400 kts 181°
2026-05-07 19:33 34.30468 -7.74622 20569 ft 397 kts 181°
2026-05-07 19:34 34.27723 -7.74432 19988 ft 394 kts 181°
2026-05-07 19:34 34.24998 -7.74244 19410 ft 391 kts 181°
2026-05-07 19:34 34.22335 -7.74070 18990 ft 384 kts 182°
2026-05-07 19:34 34.19647 -7.73996 18994 ft 387 kts 184°
2026-05-07 19:35 34.16957 -7.73980 18905 ft 382 kts 184°
2026-05-07 19:35 34.14295 -7.73974 17902 ft 383 kts 184°
2026-05-07 19:35 34.11644 -7.73965 17052 ft 379 kts 184°
2026-05-07 19:35 34.09031 -7.73949 16235 ft 374 kts 183°
2026-05-07 19:36 34.06446 -7.73927 15439 ft 369 kts 183°
2026-05-07 19:36 34.03887 -7.73902 14669 ft 365 kts 182°
2026-05-07 19:36 34.01367 -7.73875 13920 ft 361 kts 182°
2026-05-07 19:36 33.98869 -7.73848 13107 ft 357 kts 182°
2026-05-07 19:37 33.96405 -7.73821 12301 ft 353 kts 182°
2026-05-07 19:37 33.94000 -7.73794 11546 ft 349 kts 182°
2026-05-07 19:37 33.91583 -7.73767 10797 ft 346 kts 182°
2026-05-07 19:37 33.89186 -7.73740 10074 ft 343 kts 182°
2026-05-07 19:38 33.86835 -7.73713 9730 ft 329 kts 182°
2026-05-07 19:38 33.84618 -7.73685 9576 ft 310 kts 182°
2026-05-07 19:38 33.82517 -7.73658 9442 ft 294 kts 182°
2026-05-07 19:38 33.80527 -7.73634 9299 ft 279 kts 182°
2026-05-07 19:39 33.78629 -7.73612 9156 ft 266 kts 182°
2026-05-07 19:39 33.76791 -7.73593 8760 ft 264 kts 182°
2026-05-07 19:39 33.74982 -7.73576 8337 ft 263 kts 182°
2026-05-07 19:39 33.73161 -7.73558 7954 ft 262 kts 182°
2026-05-07 19:40 33.71338 -7.73540 7579 ft 262 kts 182°
2026-05-07 19:40 33.69521 -7.73521 7207 ft 261 kts 181°
2026-05-07 19:40 33.67715 -7.73502 6987 ft 258 kts 181°
2026-05-07 19:40 33.65912 -7.73482 6951 ft 260 kts 181°
2026-05-07 19:41 33.64104 -7.73463 6936 ft 260 kts 181°
2026-05-07 19:41 33.62295 -7.73443 6934 ft 260 kts 181°
2026-05-07 19:41 33.60483 -7.73423 6944 ft 261 kts 181°
2026-05-07 19:41 33.58694 -7.73403 6939 ft 260 kts 181°
2026-05-07 19:42 33.56886 -7.73383 6942 ft 260 kts 181°
2026-05-07 19:42 33.55086 -7.73363 6936 ft 260 kts 181°
2026-05-07 19:42 33.53280 -7.73342 6932 ft 260 kts 181°
2026-05-07 19:42 33.51465 -7.73322 6944 ft 261 kts 181°
2026-05-07 19:43 33.49658 -7.73302 6942 ft 260 kts 181°
2026-05-07 19:43 33.47850 -7.73282 6930 ft 260 kts 181°
2026-05-07 19:43 33.46041 -7.73262 6935 ft 260 kts 181°
2026-05-07 19:43 33.44234 -7.73241 6941 ft 260 kts 181°
2026-05-07 19:44 33.42423 -7.73222 6787 ft 262 kts 181°
2026-05-07 19:44 33.40612 -7.73201 6449 ft 259 kts 181°
2026-05-07 19:44 33.38817 -7.73182 6094 ft 257 kts 180°
2026-05-07 19:44 33.37020 -7.73162 5730 ft 259 kts 180°
2026-05-07 19:45 33.35208 -7.73142 5384 ft 261 kts 180°
2026-05-07 19:45 33.33387 -7.73122 5035 ft 262 kts 180°
2026-05-07 19:45 33.31591 -7.73102 4677 ft 263 kts 180°
2026-05-07 19:45 33.29757 -7.73081 4333 ft 265 kts 180°
2026-05-07 19:46 33.27904 -7.73061 4028 ft 267 kts 180°
2026-05-07 19:46 33.26035 -7.73040 3973 ft 270 kts 179°
2026-05-07 19:46 33.24168 -7.73020 3953 ft 268 kts 179°
2026-05-07 19:46 33.22288 -7.72999 3964 ft 270 kts 179°
2026-05-07 19:47 33.20428 -7.72978 3949 ft 267 kts 180°
2026-05-07 19:47 33.18560 -7.72957 3956 ft 268 kts 179°
2026-05-07 19:47 33.16759 -7.72612 3940 ft 256 kts 156°
2026-05-07 19:47 33.15394 -7.71453 3948 ft 233 kts 133°
2026-05-07 19:48 33.14334 -7.70034 3968 ft 230 kts 129°
2026-05-07 19:48 33.13299 -7.68587 3952 ft 229 kts 129°
2026-05-07 19:48 33.12270 -7.67142 3949 ft 228 kts 129°
2026-05-07 19:48 33.11247 -7.65697 3943 ft 229 kts 128°
2026-05-07 19:49 33.10204 -7.64249 3953 ft 230 kts 129°
2026-05-07 19:49 33.09170 -7.62807 3944 ft 229 kts 128°
2026-05-07 19:49 33.08127 -7.61360 3948 ft 231 kts 129°
2026-05-07 19:49 33.07091 -7.59895 3944 ft 231 kts 121°
2026-05-07 19:50 33.06585 -7.58167 3921 ft 215 kts 90°
2026-05-07 19:50 33.06937 -7.56578 3919 ft 197 kts 53°
2026-05-07 19:50 33.07922 -7.55500 3978 ft 192 kts 34°
2026-05-07 19:50 33.09020 -7.54581 3968 ft 191 kts 34°
2026-05-07 19:51 33.10107 -7.53666 3957 ft 191 kts 34°
2026-05-07 19:51 33.11185 -7.52758 3937 ft 194 kts 33°
2026-05-07 19:51 33.12273 -7.51831 3944 ft 193 kts 34°
2026-05-07 19:51 33.13426 -7.51077 3913 ft 189 kts 11°
2026-05-07 19:52 33.14702 -7.51291 3985 ft 190 kts 340°
2026-05-07 19:52 33.15937 -7.51905 3967 ft 193 kts 339°
2026-05-07 19:52 33.17196 -7.52472 3959 ft 192 kts 341°
2026-05-07 19:52 33.18451 -7.52961 3942 ft 184 kts 345°
2026-05-07 19:53 33.19593 -7.53354 3764 ft 163 kts 346°
2026-05-07 19:53 33.20658 -7.53717 3562 ft 161 kts 346°
2026-05-07 19:53 33.21732 -7.54083 3385 ft 159 kts 346°
2026-05-07 19:53 33.22801 -7.54447 3171 ft 159 kts 346°
2026-05-07 19:54 33.23860 -7.54808 2961 ft 157 kts 346°
2026-05-07 19:54 33.24917 -7.55169 2747 ft 160 kts 348°
2026-05-07 19:54 33.25990 -7.55534 2541 ft 160 kts 348°
2026-05-07 19:54 33.27057 -7.55907 2353 ft 158 kts 346°
2026-05-07 19:55 33.28127 -7.56292 2124 ft 165 kts 347°
2026-05-07 19:55 33.29239 -7.56676 1883 ft 165 kts 347°
2026-05-07 19:55 33.30322 -7.57070 1704 ft 160 kts 346°
2026-05-07 19:55 33.31363 -7.57409 1474 ft 154 kts 349°
2026-05-07 19:56 33.32395 -7.57727 1221 ft 154 kts 345°
2026-05-07 19:56 33.33428 -7.58091 1020 ft 156 kts 346°
2026-05-07 19:56 33.34473 -7.58438 825 ft 157 kts 345°
2026-05-07 19:56 33.35526 -7.58794 660 ft 152 kts 345°
2026-05-07 19:57 33.36385 -7.59085 659 ft 103 kts 343°
2026-05-07 19:57 33.36943 -7.59280 659 ft 67 kts 344°
2026-05-07 19:57 33.37286 -7.59399 662 ft 42 kts 344°
2026-05-07 19:57 33.37540 -7.59484 660 ft 31 kts 344°
2026-05-07 19:58 33.37670 -7.59520 659 ft 11 kts
2026-05-07 19:58 33.37721 -7.59471 659 ft 8 kts 67°
2026-05-07 19:58 33.37738 -7.59413 659 ft 7 kts 72°
2026-05-07 19:58 33.37752 -7.59362 659 ft 6 kts 72°
2026-05-07 19:59 33.37763 -7.59314 657 ft 8 kts 76°
2026-05-07 19:59 33.37784 -7.59222 656 ft 14 kts 73°
2026-05-07 19:59 33.37814 -7.59103 654 ft 14 kts 73°
2026-05-07 19:59 33.37837 -7.59009 657 ft 9 kts 74°
2026-05-07 20:00 33.37849 -7.58959 658 ft 4 kts 74°
2026-05-07 20:00 33.37852 -7.58946 659 ft 0 kts 74°
2026-05-07 20:01 33.37854 -7.58938 659 ft 3 kts 74°
2026-05-07 20:02 33.37862 -7.58904 659 ft 5 kts 74°
2026-05-07 20:02 33.37875 -7.58850 660 ft 6 kts 75°
2026-05-07 20:02 33.37865 -7.58818 660 ft 5 kts 128°
2026-05-07 20:02 33.37827 -7.58796 660 ft 8 kts 162°
2026-05-07 20:03 33.37754 -7.58772 660 ft 13 kts 165°
2026-05-07 20:03 33.37645 -7.58737 660 ft 19 kts 163°
2026-05-07 20:03 33.37514 -7.58691 660 ft 19 kts 164°
2026-05-07 20:03 33.37391 -7.58648 660 ft 18 kts 164°
2026-05-07 20:04 33.37277 -7.58609 660 ft 16 kts 164°
2026-05-07 20:04 33.37173 -7.58574 660 ft 15 kts 164°
2026-05-07 20:04 33.37080 -7.58541 660 ft 13 kts 164°
2026-05-07 20:04 33.36995 -7.58512 660 ft 12 kts 164°
2026-05-07 20:05 33.36922 -7.58487 660 ft 9 kts 162°
2026-05-07 20:05 33.36904 -7.58461 660 ft 5 kts 107°
2026-05-07 20:05 33.36909 -7.58397 660 ft 10 kts 76°
2026-05-07 20:05 33.36927 -7.58313 659 ft 10 kts 73°
2026-05-07 20:06 33.36942 -7.58241 660 ft 5 kts 83°
2026-05-07 20:06 33.36935 -7.58211 660 ft 3 kts 117°
2026-05-07 20:06 33.36915 -7.58195 660 ft 8 kts 146°
2026-05-07 20:06 33.36858 -7.58171 660 ft 8 kts 163°
2026-05-07 20:07 33.36804 -7.58152 660 ft 8 kts 163°
2026-05-07 20:07 33.36753 -7.58135 660 ft 8 kts 165°
2026-05-07 20:07 33.36699 -7.58117 659 ft 8 kts 165°
2026-05-07 20:07 33.36674 -7.58093 660 ft 4 kts 111°
2026-05-07 20:08 33.36672 -7.58067 660 ft 1 kts 86°
2026-05-07 20:08 33.36675 -7.58049 660 ft 3 kts 81°
2026-05-07 20:08 33.36679 -7.58026 660 ft 2 kts 77°
2026-05-07 20:08 33.36682 -7.58010 660 ft 2 kts 77°
2026-05-07 20:09 33.36683 -7.58005 660 ft 0 kts 77°